When you browse on this site, cookies collect data to enhance your experience and personalize the content and advertising you see.
Visit our Privacy Policy to learn more. By continuing to use the site, you agree to this use of cookies and data.
  • In Hungary
  • List of Countries
  • For 7 days
  • Water Temperature
  • Satellite Maps
  • Weather Map
  • News
  • Weather Widgets
  • user-avatar
    Login

    Hourly Weather Shillong

    Today, 17 July, Wednesday

    Time Temperature Precipitation Wind Pressure Humidity
    00:00 +19°C° 0 mm 1 mps 628 mmHg 94%
    01:00 +19°C° 0 mm 1 mps 628 mmHg 93%
    02:00 +18°C° 0 mm 1 mps 627 mmHg 92%
    03:00 +18°C° 0 mm 1 mps 627 mmHg 91%
    04:00 +18°C° 0 mm 1 mps 627 mmHg 90%
    05:00 +17°C° 0 mm 0 mps 627 mmHg 89%
    06:00 +19°C° 0 mm 1 mps 628 mmHg 90%
    07:00 +22°C° 0 mm 1 mps 629 mmHg 82%
    08:00 +22°C° 0 mm 0 mps 629 mmHg 74%
    09:00 +24°C° 0 mm 0 mps 630 mmHg 66%
    10:00 +26°C° 0.2 mm 1 mps 630 mmHg 66%
    11:00 +27°C° 0.2 mm 1 mps 630 mmHg 67%
    12:00 +27°C° 0.2 mm 1 mps 630 mmHg 67%
    13:00 +26°C° 1.8 mm 1 mps 629 mmHg 74%
    14:00 +26°C° 1.8 mm 1 mps 629 mmHg 80%
    15:00 +25°C° 1.8 mm 1 mps 628 mmHg 87%
    16:00 +24°C° 0.7 mm 1 mps 627 mmHg 89%
    17:00 +24°C° 0.7 mm 1 mps 627 mmHg 91%
    18:00 +23°C° 0.7 mm 1 mps 627 mmHg 94%
    19:00 +22°C° 0.2 mm 1 mps 627 mmHg 94%
    20:00 +21°C° 0.2 mm 1 mps 627 mmHg 95%
    21:00 +21°C° 0.2 mm 1 mps 627 mmHg 96%
    22:00 +20°C° 0.1 mm 1 mps 627 mmHg 96%
    23:00 +20°C° 0.1 mm 1 mps 627 mmHg 95%

    Tomorrow, 18 July, Thursday

    Time Temperature Precipitation Wind Pressure Humidity
    00:00 +20°C° 0.1 mm 1 mps 627 mmHg 95%
    01:00 +20°C° 0.1 mm 1 mps 627 mmHg 94%
    02:00 +20°C° 0.1 mm 1 mps 627 mmHg 93%
    03:00 +19°C° 0.1 mm 1 mps 626 mmHg 93%
    04:00 +20°C° 0.1 mm 1 mps 627 mmHg 92%
    05:00 +18°C° 0.1 mm 0 mps 627 mmHg 92%
    06:00 +18°C° 0.1 mm 0 mps 627 mmHg 92%
    07:00 +20°C° 0 mm 0 mps 628 mmHg 85%
    08:00 +22°C° 0 mm 0 mps 629 mmHg 79%
    09:00 +24°C° 0 mm 0 mps 630 mmHg 72%
    10:00 +27°C° 0.2 mm 1 mps 630 mmHg 70%
    11:00 +27°C° 0.2 mm 1 mps 630 mmHg 69%
    12:00 +28°C° 0.2 mm 1 mps 630 mmHg 67%
    13:00 +27°C° 2.1 mm 1 mps 629 mmHg 74%
    14:00 +26°C° 2.1 mm 1 mps 628 mmHg 81%
    15:00 +25°C° 2.1 mm 1 mps 627 mmHg 88%
    16:00 +24°C° 1.2 mm 1 mps 627 mmHg 90%
    17:00 +24°C° 1.2 mm 1 mps 627 mmHg 92%
    18:00 +23°C° 1.2 mm 1 mps 626 mmHg 94%
    19:00 +22°C° 0.2 mm 1 mps 627 mmHg 95%
    20:00 +22°C° 0.2 mm 1 mps 627 mmHg 95%
    21:00 +21°C° 0.2 mm 1 mps 627 mmHg 96%
    22:00 +21°C° 0 mm 1 mps 627 mmHg 96%
    23:00 +21°C° 0 mm 1 mps 627 mmHg 95%

    Day after tomorrow, 19 July, Friday

    Time Temperature Precipitation Wind Pressure Humidity
    00:00 +20°C° 0 mm 1 mps 627 mmHg 95%
    01:00 +20°C° 0.2 mm 1 mps 627 mmHg 95%
    02:00 +20°C° 0.2 mm 1 mps 627 mmHg 96%
    03:00 +20°C° 0.2 mm 1 mps 627 mmHg 96%
    04:00 +20°C° 0.2 mm 1 mps 627 mmHg 96%
    05:00 +20°C° 0.2 mm 1 mps 627 mmHg 96%
    06:00 +20°C° 0.2 mm 1 mps 628 mmHg 95%
    07:00 +22°C° 0.2 mm 1 mps 628 mmHg 90%
    08:00 +23°C° 0.2 mm 1 mps 629 mmHg 85%
    09:00 +25°C° 0.2 mm 1 mps 630 mmHg 79%
    10:00 +25°C° 0.8 mm 1 mps 630 mmHg 81%
    11:00 +25°C° 0.8 mm 1 mps 630 mmHg 82%
    12:00 +25°C° 0.8 mm 1 mps 629 mmHg 84%
    13:00 +25°C° 1.3 mm 1 mps 629 mmHg 85%
    14:00 +25°C° 1.3 mm 1 mps 628 mmHg 86%
    15:00 +25°C° 1.3 mm 1 mps 628 mmHg 87%
    16:00 +24°C° 0.8 mm 1 mps 627 mmHg 90%
    17:00 +24°C° 0.8 mm 1 mps 627 mmHg 92%
    18:00 +23°C° 0.8 mm 1 mps 627 mmHg 94%
    19:00 +22°C° 0.1 mm 1 mps 627 mmHg 95%
    20:00 +22°C° 0.1 mm 1 mps 627 mmHg 96%
    21:00 +21°C° 0.1 mm 1 mps 627 mmHg 97%
    22:00 +21°C° 0.2 mm 1 mps 627 mmHg 97%
    23:00 +21°C° 0.2 mm 1 mps 628 mmHg 97%

    20 July, Saturday

    Time Temperature Precipitation Wind Pressure Humidity
    00:00 +20°C° 0.2 mm 2 mps 628 mmHg 97%
    01:00 +20°C° 0.3 mm 2 mps 628 mmHg 97%
    02:00 +20°C° 0.3 mm 2 mps 627 mmHg 97%
    03:00 +19°C° 0.3 mm 2 mps 627 mmHg 97%
    04:00 +19°C° 0.1 mm 2 mps 627 mmHg 96%
    05:00 +19°C° 0.1 mm 2 mps 628 mmHg 96%
    06:00 +19°C° 0.1 mm 2 mps 628 mmHg 95%
    07:00 +20°C° 0.2 mm 2 mps 629 mmHg 92%
    08:00 +21°C° 0.2 mm 2 mps 629 mmHg 89%
    09:00 +23°C° 0.2 mm 2 mps 630 mmHg 86%
    10:00 +24°C° 0.5 mm 2 mps 630 mmHg 82%
    11:00 +25°C° 0.5 mm 2 mps 630 mmHg 79%
    12:00 +26°C° 0.5 mm 2 mps 630 mmHg 76%
    13:00 +25°C° 0.6 mm 2 mps 629 mmHg 78%
    14:00 +25°C° 0.6 mm 2 mps 629 mmHg 80%
    15:00 +25°C° 0.6 mm 2 mps 628 mmHg 81%
    16:00 +24°C° 0.3 mm 2 mps 628 mmHg 85%
    17:00 +23°C° 0.3 mm 2 mps 627 mmHg 88%
    18:00 +23°C° 0.3 mm 1 mps 627 mmHg 92%
    19:00 +22°C° 0.3 mm 1 mps 627 mmHg 93%
    20:00 +22°C° 0.3 mm 1 mps 628 mmHg 94%
    21:00 +20°C° 0.3 mm 2 mps 628 mmHg 95%
    22:00 +20°C° 0.1 mm 2 mps 628 mmHg 95%
    23:00 +20°C° 0.1 mm 2 mps 628 mmHg 95%

    21 July, Sunday

    Time Temperature Precipitation Wind Pressure Humidity
    00:00 +20°C° 0.1 mm 2 mps 627 mmHg 96%
    01:00 +20°C° 0.2 mm 2 mps 627 mmHg 96%
    02:00 +19°C° 0.2 mm 2 mps 627 mmHg 95%
    03:00 +19°C° 0.2 mm 2 mps 626 mmHg 95%
    04:00 +19°C° 0.2 mm 2 mps 626 mmHg 95%
    05:00 +19°C° 0.2 mm 2 mps 627 mmHg 95%
    06:00 +19°C° 0.2 mm 2 mps 627 mmHg 95%
    07:00 +20°C° 0.3 mm 2 mps 627 mmHg 95%
    08:00 +21°C° 0.3 mm 1 mps 628 mmHg 95%
    09:00 +21°C° 0.3 mm 1 mps 628 mmHg 95%
    10:00 +22°C° 0.3 mm 1 mps 628 mmHg 94%
    11:00 +22°C° 0.3 mm 1 mps 628 mmHg 92%
    12:00 +22°C° 0.3 mm 1 mps 629 mmHg 91%
    13:00 +22°C° 0.2 mm 1 mps 628 mmHg 91%
    14:00 +22°C° 0.2 mm 1 mps 627 mmHg 92%
    15:00 +22°C° 0.2 mm 1 mps 627 mmHg 92%
    16:00 +22°C° 0 mm 1 mps 627 mmHg 92%
    17:00 +22°C° 0 mm 1 mps 627 mmHg 92%
    18:00 +21°C° 0 mm 1 mps 626 mmHg 93%
    19:00 +21°C° 0.1 mm 1 mps 627 mmHg 93%
    20:00 +20°C° 0.1 mm 1 mps 627 mmHg 94%
    21:00 +20°C° 0.1 mm 1 mps 627 mmHg 95%
    22:00 +20°C° 0 mm 1 mps 627 mmHg 95%
    23:00 +20°C° 0 mm 1 mps 627 mmHg 95%

    22 July, Monday

    Time Temperature Precipitation Wind Pressure Humidity
    00:00 +20°C° 0 mm 1 mps 627 mmHg 95%
    01:00 +20°C° 0.2 mm 1 mps 627 mmHg 95%
    02:00 +20°C° 0.2 mm 1 mps 626 mmHg 95%
    03:00 +20°C° 0.2 mm 1 mps 626 mmHg 95%
    04:00 +20°C° 1.1 mm 1 mps 626 mmHg 96%
    05:00 +20°C° 1.1 mm 1 mps 626 mmHg 97%
    06:00 +18°C° 1.1 mm 0 mps 626 mmHg 97%
    07:00 +21°C° 2.2 mm 1 mps 627 mmHg 96%
    08:00 +21°C° 2.2 mm 1 mps 627 mmHg 95%
    09:00 +22°C° 2.2 mm 1 mps 628 mmHg 94%
    10:00 +21°C° 2.3 mm 1 mps 628 mmHg 96%
    11:00 +21°C° 2.3 mm 1 mps 627 mmHg 97%
    12:00 +21°C° 2.3 mm 1 mps 627 mmHg 98%
    13:00 +21°C° 2.4 mm 1 mps 627 mmHg 98%
    14:00 +21°C° 2.4 mm 1 mps 626 mmHg 98%
    15:00 +21°C° 2.4 mm 1 mps 626 mmHg 98%
    16:00 +20°C° 1 mm 1 mps 626 mmHg 97%
    17:00 +20°C° 1 mm 1 mps 625 mmHg 97%
    18:00 +20°C° 1 mm 1 mps 625 mmHg 97%
    19:00 +20°C° 0 mm 1 mps 625 mmHg 96%
    20:00 +20°C° 0 mm 1 mps 626 mmHg 95%
    21:00 +20°C° 0 mm 1 mps 626 mmHg 94%
    22:00 +19°C° 0 mm 1 mps 626 mmHg 94%
    23:00 +19°C° 0 mm 1 mps 626 mmHg 93%
    Show more